Volver al catálogo

STARLINK-2566

ActivoComunicacionesVLEO
NORAD 48287·PAYLOAD·🇺🇸 United States

Lanzado Apr 29, 2021 desde Cape Canaveral Space Force Station

Loading…

Próximos Pases (próximas 24 horas)

TLE

ActualizadoSource: CelesTrak SupGP

Época: Sep 15, 2026, 01:09 UTC

1 48287C 21036M   26258.04840278  .00029575  00000+0  95039-3 0  2581
2 48287  53.1587 276.5770 0001295  89.4091 257.1222 15.31709265    13

Sigue STARLINK-2566 en tiempo real con AllMySat

Download on the App Store